GW1622 Weather Reports


Display with metric or nautical units.
time (UTC)temp
F
wind
direction
speed
MPH
gust
MPH
rain 1hr
in
rain 24hr
in
rain mn
in
humidity
%
barometer
mb
20260509152515 61 0 0.0 2.0 0.00 0.00 0.00 89 1014.6
20260509152015 61 126 0.0 3.0 0.00 0.00 0.00 90 1014.5
20260509151533 61 158 0.0 3.0 0.00 0.00 0.00 90 1014.5
20260509151015 61 157 1.0 3.0 0.00 0.00 0.00 90 1014.5
20260509150514 61 155 0.0 3.0 0.00 0.00 0.00 90 1014.5
20260509150031 61 0 0.0 2.0 0.00 0.00 0.00 91 1014.5
20260509145514 60 0 0.0 2.0 0.00 0.00 0.00 91 1014.6
20260509145015 60 0 0.0 3.0 0.00 0.00 0.00 91 1014.5
20260509144530 60 128 1.0 3.0 0.00 0.00 0.00 91 1014.4
20260509144012 60 136 0.0 2.0 0.00 0.00 0.00 91 1014.4
20260509143513 60 0 0.0 2.0 0.00 0.00 0.00 91 1014.4
20260509143038 60 133 0.0 2.0 0.00 0.00 0.00 91 1014.5
20260509142514 60 0 0.0 2.0 0.00 0.00 0.00 91 1014.4
20260509142014 60 0 0.0 1.0 0.00 0.00 0.00 92 1014.5
20260509141532 60 0 0.0 0.0 0.00 0.00 0.00 92 1014.4
20260509141015 60 0 0.0 0.0 0.00 0.00 0.00 92 1014.4
20260509140516 60 0 0.0 1.0 0.00 0.00 0.00 92 1014.2
20260509140049 60 0 0.0 1.0 0.00 0.00 0.00 92 1014.2
20260509135514 60 0 0.0 1.0 0.00 0.00 0.00 92 1014.3
20260509135017 60 101 0.0 1.0 0.00 0.00 0.00 92 1014.3
20260509134534 60 0 0.0 1.0 0.00 0.00 0.00 92 1014.4
20260509134016 60 0 0.0 3.0 0.00 0.00 0.00 92 1014.2
20260509133515 60 101 0.0 3.0 0.00 0.00 0.00 92 1014.3
20260509133034 60 0 0.0 2.0 0.00 0.00 0.00 91 1014.2
20260509132514 60 130 0.0 2.0 0.00 0.00 0.00 92 1014.1
20260509132015 60 0 0.0 2.0 0.00 0.00 0.00 91 1014.1
20260509131540 60 0 0.0 2.0 0.00 0.00 0.00 91 1014.1
20260509131014 60 130 0.0 2.0 0.00 0.00 0.00 92 1014.0
20260509130515 60 130 0.0 2.0 0.00 0.00 0.00 92 1014.0
20260509130034 60 0 0.0 1.0 0.00 0.00 0.00 91 1014.1
20260509125515 60 0 0.0 2.0 0.00 0.00 0.00 91 1014.1
20260509125015 60 0 0.0 2.0 0.00 0.00 0.00 91 1014.0
20260509124536 60 0 0.0 2.0 0.00 0.00 0.00 91 1013.9
20260509124015 60 0 0.0 2.0 0.00 0.00 0.00 91 1013.9
20260509123513 60 0 0.0 2.0 0.00 0.00 0.00 91 1013.9
20260509123032 60 0 0.0 2.0 0.00 0.00 0.00 91 1013.9
20260509122512 60 0 0.0 2.0 0.00 0.00 0.00 91 1013.9
20260509122013 60 0 0.0 2.0 0.00 0.00 0.00 91 1013.9
20260509121544 60 0 0.0 1.0 0.00 0.00 0.00 91 1013.9
20260509121019 60 0 0.0 0.0 0.00 0.00 0.00 91 1013.9
20260509120515 60 0 0.0 0.0 0.00 0.00 0.00 91 1013.8
20260509120036 60 0 0.0 2.0 0.00 0.00 0.00 91 1013.9
20260509115514 60 0 0.0 2.0 0.00 0.00 0.00 91 1013.9
20260509115014 60 0 1.0 2.0 0.00 0.00 0.00 91 1013.8
20260509114534 60 0 0.0 1.0 0.00 0.00 0.00 91 1013.8
20260509114013 60 0 0.0 2.0 0.00 0.00 0.00 91 1013.9
20260509113514 60 0 0.0 2.0 0.00 0.00 0.00 90 1013.8
20260509113030 61 0 0.0 2.0 0.00 0.00 0.00 90 1013.9
20260509112517 61 0 0.0 0.0 0.00 0.00 0.00 90 1013.9
20260509112016 61 0 0.0 1.0 0.00 0.00 0.00 90 1013.9
20260509111534 61 0 0.0 1.0 0.00 0.00 0.00 90 1013.8
20260509111016 61 173 0.0 1.0 0.00 0.00 0.00 90 1013.9
20260509110517 61 0 0.0 0.0 0.00 0.00 0.00 90 1013.9
20260509110033 61 0 0.0 0.0 0.00 0.00 0.00 90 1013.9
20260509105515 61 0 0.0 0.0 0.00 0.00 0.00 90 1013.9
20260509105015 61 0 0.0 0.0 0.00 0.00 0.00 90 1014.0
20260509104532 61 0 0.0 0.0 0.00 0.00 0.00 90 1014.0
20260509104015 61 0 0.0 1.0 0.00 0.00 0.00 90 1014.0
20260509103516 61 0 0.0 1.0 0.00 0.00 0.00 90 1014.0
20260509103036 61 0 0.0 0.0 0.00 0.00 0.00 90 1014.0
20260509102515 61 0 0.0 0.0 0.00 0.00 0.00 90 1014.1
20260509102015 61 0 0.0 0.0 0.00 0.00 0.00 90 1014.1
20260509101533 61 0 0.0 0.0 0.00 0.00 0.00 90 1014.1
20260509101016 61 0 0.0 0.0 0.00 0.00 0.00 90 1014.0
20260509100515 61 0 0.0 0.0 0.00 0.00 0.00 90 1014.0
20260509100033 61 0 0.0 0.0 0.00 0.00 0.00 90 1014.2
20260509095516 61 0 0.0 2.0 0.00 0.00 0.00 90 1014.2
20260509095015 61 0 0.0 2.0 0.00 0.00 0.00 90 1014.3
20260509094532 61 0 0.0 2.0 0.00 0.00 0.00 90 1014.3
20260509094016 61 142 1.0 3.0 0.00 0.00 0.00 90 1014.4
20260509093516 61 0 1.0 3.0 0.00 0.00 0.00 90 1014.3
20260509093035 61 0 0.0 3.0 0.00 0.00 0.00 90 1014.3
20260509092516 61 123 0.0 3.0 0.00 0.00 0.00 90 1014.3
20260509092015 61 0 0.0 3.0 0.00 0.00 0.00 90 1014.3
20260509091537 61 0 0.0 3.0 0.00 0.00 0.00 90 1014.4
20260509091016 61 0 0.0 3.0 0.00 0.00 0.00 90 1014.3
20260509090515 61 120 0.0 2.0 0.00 0.00 0.00 90 1014.4
20260509090036 61 120 0.0 2.0 0.00 0.00 0.00 90 1014.5
20260509085514 61 0 0.0 2.0 0.00 0.00 0.00 90 1014.7
20260509085014 61 120 0.0 3.0 0.00 0.00 0.00 90 1014.6
20260509084538 61 120 1.0 3.0 0.00 0.00 0.00 90 1014.7
20260509084018 61 0 0.0 2.0 0.00 0.00 0.00 90 1014.7
20260509083516 61 113 0.0 3.0 0.00 0.00 0.00 90 1014.8
20260509083045 61 0 0.0 3.0 0.00 0.00 0.00 90 1014.7
20260509082515 61 137 0.0 3.0 0.00 0.00 0.00 90 1014.7
20260509082015 61 0 0.0 2.0 0.00 0.00 0.00 90 1014.8
20260509081539 61 0 0.0 2.0 0.00 0.00 0.00 90 1014.9
20260509081015 61 34 0.0 1.0 0.00 0.00 0.00 90 1015.0
20260509080516 61 0 0.0 0.0 0.00 0.00 0.00 90 1014.9
20260509080034 61 0 0.0 0.0 0.00 0.00 0.00 90 1014.9
20260509075521 61 0 0.0 1.0 0.00 0.00 0.00 90 1015.0
20260509075021 61 0 0.0 2.0 0.00 0.00 0.00 90 1014.9
20260509074536 61 0 0.0 2.0 0.00 0.00 0.00 90 1015.0
20260509074016 61 0 0.0 1.0 0.00 0.00 0.00 90 1015.0
20260509073515 61 0 0.0 1.0 0.00 0.00 0.00 90 1015.0
20260509073037 61 0 0.0 1.0 0.00 0.00 0.00 90 1015.0
20260509072517 61 0 0.0 2.0 0.00 0.00 0.00 90 1015.1
20260509072015 61 0 0.0 2.0 0.00 0.00 0.00 90 1015.1
20260509071534 61 0 0.0 2.0 0.00 0.00 0.00 90 1015.2
20260509071018 61 0 0.0 2.0 0.00 0.00 0.00 90 1015.2
20260509070517 61 0 0.0 2.0 0.00 0.00 0.00 90 1015.2
20260509070036 61 0 0.0 2.0 0.00 0.00 0.00 90 1015.2
20260509065518 61 0 0.0 1.0 0.00 0.00 0.00 90 1015.2
20260509065019 61 0 0.0 1.0 0.00 0.00 0.00 89 1015.4
20260509064535 61 127 0.0 2.0 0.00 0.00 0.00 89 1015.4
20260509064019 61 127 0.0 2.0 0.00 0.00 0.00 90 1015.4
20260509063522 61 0 0.0 2.0 0.00 0.00 0.00 89 1015.4
20260509063034 61 0 0.0 1.0 0.00 0.00 0.00 89 1015.3
20260509062521 61 0 0.0 1.0 0.00 0.00 0.00 89 1015.4
20260509062023 61 0 0.0 3.0 0.00 0.00 0.00 89 1015.3
20260509061539 61 0 0.0 4.0 0.00 0.00 0.00 89 1015.3
20260509061016 61 157 2.0 4.0 0.00 0.00 0.00 89 1015.2
20260509060515 61 0 0.0 2.0 0.00 0.00 0.00 89 1015.3
20260509060038 61 0 0.0 1.0 0.00 0.00 0.00 89 1015.4
20260509055516 61 0 0.0 1.0 0.00 0.00 0.00 88 1015.5
20260509055016 61 0 0.0 1.0 0.00 0.00 0.00 88 1015.4
20260509054538 61 0 0.0 1.0 0.00 0.00 0.00 89 1015.4
20260509054014 61 0 0.0 1.0 0.00 0.00 0.00 89 1015.5
20260509053516 61 0 0.0 1.0 0.00 0.00 0.00 89 1015.5
20260509053053 61 0 0.0 1.0 0.00 0.00 0.00 88 1015.5
20260509052516 61 0 0.0 2.0 0.00 0.00 0.00 89 1015.6
20260509052016 61 0 0.0 2.0 0.00 0.00 0.00 89 1015.6
20260509051531 61 0 0.0 2.0 0.00 0.00 0.00 89 1015.7
20260509051015 61 0 0.0 2.0 0.00 0.00 0.00 89 1015.7
20260509050513 61 0 0.0 2.0 0.00 0.00 0.00 89 1015.7
20260509050032 61 0 0.0 1.0 0.00 0.00 0.00 89 1015.7
20260509045517 61 0 0.0 1.0 0.00 0.00 0.00 89 1015.6
20260509045015 61 32 0.0 1.0 0.00 0.00 0.00 89 1015.6
20260509044535 61 0 0.0 2.0 0.00 0.00 0.00 89 1015.5
20260509044016 62 0 0.0 2.0 0.00 0.00 0.00 89 1015.5
20260509043516 62 352 0.0 2.0 0.00 0.00 0.00 89 1015.6
20260509043041 62 352 0.0 2.0 0.00 0.00 0.00 89 1015.5
20260509042516 62 57 0.0 1.0 0.00 0.00 0.00 89 1015.4
20260509042016 62 0 0.0 2.0 0.00 0.00 0.00 88 1015.4
20260509041545 62 0 0.0 2.0 0.00 0.00 0.00 88 1015.4
20260509041020 62 0 0.0 3.0 0.00 0.00 0.00 88 1015.4
20260509040516 62 268 1.0 3.0 0.00 0.00 0.00 88 1015.3
20260509040035 62 0 0.0 2.0 0.00 0.00 0.00 88 1015.3
20260509035516 62 15 0.0 2.0 0.00 0.00 0.00 88 1015.4
20260509035015 62 113 0.0 2.0 0.00 0.00 0.00 88 1015.2
20260509034539 61 338 0.0 2.0 0.00 0.00 0.00 88 1015.3
20260509034015 62 0 0.0 2.0 0.00 0.00 0.00 88 1015.1
20260509033516 62 18 0.0 2.0 0.00 0.00 0.00 88 1015.1
20260509033032 62 18 0.0 2.0 0.00 0.00 0.00 88 1015.1
20260509032516 62 0 0.0 1.0 0.00 0.00 0.00 88 1015.0
20260509032016 62 0 0.0 1.0 0.00 0.00 0.00 87 1015.0
20260509031537 62 0 0.0 1.0 0.00 0.00 0.00 87 1015.0
20260509031015 62 0 0.0 2.0 0.00 0.00 0.00 87 1015.0
20260509030517 62 0 0.0 2.0 0.00 0.00 0.00 87 1014.9
20260509030032 62 303 0.0 3.0 0.00 0.00 0.00 87 1014.9
20260509025517 62 0 0.0 3.0 0.00 0.00 0.00 87 1014.8
20260509025015 62 0 0.0 3.0 0.00 0.00 0.00 87 1014.8
20260509024535 62 148 0.0 3.0 0.00 0.00 0.00 86 1014.7
20260509024015 63 36 0.0 3.0 0.00 0.00 0.00 86 1014.7
20260509023514 63 81 0.0 3.0 0.00 0.00 0.00 86 1014.7
20260509023036 63 0 0.0 2.0 0.00 0.00 0.00 86 1014.6
20260509022518 63 0 0.0 2.0 0.00 0.00 0.00 86 1014.6
20260509022016 63 142 0.0 2.0 0.00 0.00 0.00 86 1014.6
20260509021533 63 0 0.0 3.0 0.00 0.00 0.00 86 1014.5
20260509021020 63 0 1.0 3.0 0.00 0.00 0.00 85 1014.6
20260509020515 63 159 0.0 2.0 0.00 0.00 0.00 85 1014.5
20260509020101 63 0 0.0 4.0 0.00 0.00 0.00 85 1014.5
20260509015517 63 254 0.0 4.0 0.00 0.00 0.00 85 1014.4
20260509015016 63 0 1.0 4.0 0.00 0.00 0.00 84 1014.4
20260509014532 64 339 0.0 3.0 0.00 0.00 0.00 85 1014.3
20260509014018 64 0 0.0 3.0 0.00 0.00 0.00 84 1014.2
20260509013515 64 0 0.0 2.0 0.00 0.00 0.00 84 1014.3
20260509013045 64 334 0.0 3.0 0.00 0.00 0.00 84 1014.4
20260509012517 64 351 0.0 3.0 0.00 0.00 0.00 84 1014.6
20260509012015 64 333 1.0 3.0 0.00 0.00 0.00 84 1014.5
20260509011535 63 0 1.0 4.0 0.00 0.00 0.00 84 1014.4
20260509011013 64 31 0.0 4.0 0.00 0.00 0.00 84 1014.4
20260509010515 64 342 0.0 3.0 0.00 0.00 0.00 84 1014.3
20260509010047 64 214 1.0 3.0 0.00 0.00 0.00 83 1014.4
20260509005517 65 155 0.0 3.0 0.00 0.00 0.00 83 1014.4
20260509005020 65 97 0.0 3.0 0.00 0.00 0.00 83 1014.3
20260509004531 65 0 1.0 3.0 0.00 0.00 0.00 83 1014.3
20260509004014 65 0 0.0 3.0 0.00 0.00 0.00 82 1014.1
20260509003515 66 0 0.0 3.0 0.00 0.00 0.00 82 1014.1
20260509003033 65 5 0.0 5.0 0.00 0.00 0.00 82 1014.1
20260509002516 65 304 1.0 5.0 0.00 0.00 0.00 83 1014.1
20260509002017 65 71 0.0 6.0 0.00 0.00 0.00 82 1014.2
20260509001532 66 19 0.0 7.0 0.00 0.00 0.00 81 1014.3
20260509001017 66 0 1.0 7.0 0.00 0.00 0.00 81 1014.3
20260509000516 66 35 0.0 4.0 0.00 0.00 0.00 81 1014.5
20260509000032 66 9 1.0 3.0 0.00 0.00 0.00 80 1014.5
20260508235517 66 0 0.0 4.0 0.00 0.00 0.00 81 1014.5
20260508235015 66 126 1.0 4.0 0.00 0.00 0.00 80 1014.5
20260508234535 67 324 1.0 7.0 0.00 0.00 0.00 80 1014.6
20260508234017 67 315 1.0 7.0 0.00 0.00 0.00 79 1014.5
20260508233516 68 140 2.0 7.0 0.00 0.00 0.00 78 1014.6
20260508233034 67 92 1.0 5.0 0.00 0.00 0.00 78 1014.6
20260508232516 68 12 1.0 8.0 0.00 0.00 0.00 75 1014.6
20260508232015 69 40 2.0 8.0 0.00 0.00 0.00 76 1014.7
20260508231531 69 287 0.0 6.0 0.00 0.00 0.00 77 1014.9
20260508231015 69 103 1.0 5.0 0.00 0.00 0.00 76 1014.8
20260508230516 68 242 2.0 5.0 0.00 0.00 0.00 76 1014.9
20260508230043 69 234 1.0 5.0 0.00 0.00 0.00 74 1014.9
20260508225515 69 334 1.0 5.0 0.00 0.00 0.00 74 1015.0
20260508225015 69 36 1.0 5.0 0.00 0.00 0.00 76 1015.0
20260508224538 69 117 1.0 5.0 0.00 0.00 0.00 74 1015.1
20260508224014 69 58 1.0 5.0 0.00 0.00 0.00 75 1015.0
20260508223514 69 347 1.0 5.0 0.00 0.00 0.00 76 1015.0
20260508223036 69 82 1.0 6.0 0.00 0.00 0.00 75 1015.0
20260508222519 69 147 1.0 8.0 0.00 0.00 0.00 75 1015.1
20260508222016 69 250 2.0 8.0 0.00 0.00 0.00 74 1015.1
20260508221542 70 352 1.0 7.0 0.00 0.00 0.00 75 1015.3
20260508221016 70 49 3.0 7.0 0.00 0.00 0.00 75 1015.3
20260508220519 71 75 1.0 5.0 0.00 0.00 0.00 72 1015.3
20260508220033 71 26 1.0 7.0 0.00 0.00 0.00 73 1015.4
20260508215517 70 352 2.0 8.0 0.00 0.00 0.00 73 1015.3
20260508215017 71 124 2.0 8.0 0.00 0.00 0.00 72 1015.4
20260508214532 71 52 1.0 7.0 0.00 0.00 0.00 72 1015.4
20260508214016 71 17 2.0 7.0 0.00 0.00 0.00 72 1015.5
20260508213515 71 352 1.0 6.0 0.00 0.00 0.00 73 1015.5
20260508213034 71 80 1.0 10.0 0.00 0.00 0.00 73 1015.6
20260508212517 70 135 2.0 10.0 0.00 0.00 0.00 72 1015.5
20260508212017 70 65 2.0 6.0 0.00 0.00 0.00 73 1015.4
20260508211530 70 171 2.0 6.0 0.00 0.00 0.00 72 1015.3
20260508211015 70 50 1.0 7.0 0.00 0.00 0.00 73 1015.2
20260508210515 70 314 2.0 7.0 0.00 0.00 0.00 74 1015.4
20260508210030 70 314 2.0 10.0 0.00 0.00 0.00 74 1015.5
20260508205514 69 0 2.0 10.0 0.00 0.00 0.00 74 1015.3
20260508205019 69 30 2.0 9.0 0.00 0.00 0.00 74 1015.4
20260508204533 70 333 2.0 7.0 0.00 0.00 0.00 74 1015.3
20260508204018 70 92 2.0 6.0 0.00 0.00 0.00 73 1015.3
20260508203516 69 360 1.0 6.0 0.00 0.00 0.00 73 1015.4
20260508203032 70 63 2.0 9.0 0.00 0.00 0.00 74 1015.4
20260508202516 70 194 2.0 9.0 0.00 0.00 0.00 75 1015.6
20260508202015 70 30 2.0 9.0 0.00 0.00 0.00 74 1015.6
20260508201531 68 97 3.0 9.0 0.00 0.00 0.00 77 1015.6
20260508201017 69 352 1.0 7.0 0.00 0.00 0.00 74 1015.7
20260508200515 69 297 2.0 8.0 0.00 0.00 0.00 74 1015.8
20260508200043 69 78 2.0 8.0 0.00 0.00 0.00 76 1015.7
20260508195515 68 47 3.0 9.0 0.00 0.00 0.00 75 1015.8
20260508195014 69 331 2.0 9.0 0.00 0.00 0.00 76 1015.9
20260508194534 69 75 2.0 8.0 0.00 0.00 0.00 72 1015.9
20260508194016 70 42 1.0 6.0 0.00 0.00 0.00 76 1016.0
20260508193516 69 0 2.0 6.0 0.00 0.00 0.00 76 1016.1
20260508193035 69 103 2.0 6.0 0.00 0.00 0.00 74 1016.2
20260508192514 69 98 1.0 6.0 0.00 0.00 0.00 75 1016.2
20260508192017 69 74 2.0 8.0 0.00 0.00 0.00 76 1016.3
20260508191532 69 44 2.0 8.0 0.00 0.00 0.00 76 1016.3
20260508191016 69 80 1.0 7.0 0.00 0.00 0.00 76 1016.3
20260508190515 69 67 2.0 6.0 0.00 0.00 0.00 76 1016.4
20260508190040 69 94 2.0 6.0 0.00 0.00 0.00 75 1016.4
20260508185521 68 24 2.0 8.0 0.00 0.00 0.00 77 1016.4
20260508185017 68 340 2.0 8.0 0.00 0.00 0.00 78 1016.4
20260508184536 68 34 2.0 6.0 0.00 0.00 0.00 79 1016.5
20260508184015 68 34 1.0 6.0 0.00 0.00 0.00 78 1016.6
20260508183513 68 40 2.0 7.0 0.00 0.00 0.00 80 1016.6
20260508183032 66 26 2.0 7.0 0.00 0.00 0.00 82 1016.6
20260508182517 66 103 1.0 7.0 0.00 0.00 0.00 82 1016.6
20260508182015 65 105 1.0 5.0 0.00 0.00 0.00 82 1016.8
20260508181531 65 36 1.0 5.0 0.00 0.00 0.00 82 1016.7
20260508181016 66 211 1.0 8.0 0.00 0.00 0.00 82 1016.8
20260508180518 65 101 0.0 8.0 0.00 0.00 0.00 85 1016.8
20260508180034 64 215 1.0 7.0 0.00 0.00 0.00 84 1016.8
20260508175515 64 78 1.0 4.0 0.00 0.00 0.00 83 1016.8
20260508175016 64 0 1.0 4.0 0.00 0.00 0.00 83 1016.9
20260508174538 64 260 1.0 3.0 0.00 0.00 0.00 84 1016.8
20260508174019 64 0 0.0 4.0 0.00 0.00 0.00 85 1016.8
20260508173517 64 287 0.0 4.0 0.00 0.00 0.00 85 1016.8
20260508173030 64 27 1.0 4.0 0.00 0.00 0.00 85 1016.8
20260508172516 63 0 1.0 4.0 0.00 0.00 0.00 86 1016.9
20260508172014 63 0 1.0 4.0 0.00 0.00 0.00 87 1017.0
20260508171532 63 51 1.0 4.0 0.00 0.00 0.00 87 1016.9
20260508171014 63 0 0.0 2.0 0.00 0.00 0.00 87 1016.9
20260508170514 62 0 0.0 3.0 0.00 0.00 0.00 88 1016.9
20260508170032 62 82 0.0 3.0 0.00 0.00 0.00 87 1017.0
20260508165513 62 109 0.0 2.0 0.00 0.00 0.00 87 1017.1
20260508165016 62 0 0.0 3.0 0.00 0.00 0.00 88 1017.0
20260508164536 62 0 0.0 3.0 0.00 0.00 0.00 88 1017.1
20260508164014 62 204 0.0 2.0 0.00 0.00 0.00 87 1017.0
20260508163515 62 0 0.0 1.0 0.00 0.00 0.00 88 1017.0
20260508163032 62 0 0.0 2.0 0.00 0.00 0.00 88 1017.1
20260508162515 62 0 0.0 2.0 0.00 0.00 0.00 88 1017.1
20260508162015 61 0 0.0 2.0 0.00 0.00 0.00 88 1017.1
20260508161531 61 0 0.0 2.0 0.00 0.00 0.00 88 1017.1
20260508161013 61 301 0.0 2.0 0.00 0.00 0.00 89 1017.0
20260508160515 61 0 0.0 2.0 0.00 0.00 0.00 89 1017.1
20260508160034 61 254 0.0 2.0 0.00 0.00 0.00 90 1017.2
20260508155516 61 0 0.0 2.0 0.00 0.00 0.00 90 1017.2
20260508155013 61 0 0.0 2.0 0.00 0.00 0.00 90 1017.2
20260508154535 61 0 0.0 2.0 0.00 0.00 0.00 90 1017.2
20260508154014 61 0 0.0 2.0 0.00 0.00 0.00 91 1017.2
20260508153518 61 0 0.0 2.0 0.00 0.00 0.00 90 1017.2
20260508153033 61 105 0.0 2.0 0.00 0.00 0.00 91 1017.2